LiveATC.Net - Listen to live air traffic control over the Internet!


ICAO: KEAU  IATA: EAU   Airport: Chippewa Valley Regional Airport
City: Eau Claire   State/Province: Wisconsin
Country: United States   Continent: North America
KEAU METAR Weather: KEAU 242156Z 28012KT 10SM CLR 29/17 A2989 RMK AO2 SLP115 T02890172 $
KEAU Flight Activity (FlightAware)
KEAU Airport Info   (AirNav) (iFlightPlanner)
KEAU VFR Sectional Chart   (iFlightPlanner) 
KEAU IFR Low Chart   (iFlightPlanner) 
KEAU Tower
Feed Status: UP   Listeners: 0
Listen right in your browser - requires Flash (in browser, requires Flash)
Click here to listen with your own player (launches your MP3 player)
KEAU Tower Audio Archives
FacilityFrequency
Eau Claire Tower118.575


NOTICE

Unauthorized use prohibited. See LiveATC.net Terms of Service


Find LiveATC Audio Streams


Airport/ARTCC Code

Frequency
(e.g., 124.400, 128.75)
Site-wide search

Browse LiveATC Feeds
LiveATC Coverage Map
Top 50 LiveATC Feeds
Bad Weather Areas

LiveATC FAQ
Offer a LiveATC Feed
Contact LiveATC.net
Press Inquiries

LiveATC on iPhone
LiveATC on Android

Windows Phone
Windows 8/10

LiveATC Mobile
(Mobile browser)

ATC Audio Archives
Interesting Recordings

LiveATC Forums


Home Page
About LiveATC.net
Make a Donation
LiveATC Store

Terms of Use
Privacy Policy

Canadian Air Freqs

AIRMETs/SIGMETs

FAA Airport Status
Nat'l Airspace Status
Arrival Demand Charts


Server Software By:
Icecast.org
Liquidsoap